Home   Weather   Fortaleza   Past weeks

Flag for Brazil Past Weather in Fortaleza, Ceará, Brazil — Yesterday and Last 2 Weeks

Now
77 °F

Partly sunny.


Feels Like: 78 °F
Forecast: 77 / 85 °F
Wind: 5 mph from Southeast

Location: Fortaleza Aeropor-To

Current Time: Apr 30, 2017 at 7:59:43 am

Latest Report: Apr 30, 2017 at 7:00 am


Visibility: N/A

Pressure: 29.92 "Hg

Humidity: 94%

Dew Point: 75 °F

Location of FortalezaLocation

Past Weather in Fortaleza — Graph

°F

Fortaleza Temperature Yesterday

Maximum temperature yesterday: 88 °F (at 1:00 pm)
Minimum temperature yesterday: 77 °F (at 4:00 am)
Average temperature yesterday: 82 °F

High & Low Weather Summary for the Past Weeks

 TemperatureHumidityPressure
High90 °F (Apr 16, 1:00 pm)100% (Apr 22, 8:00 am)29.98 "Hg (Apr 22, 8:00 am)
Low43 °F (Apr 24, 10:00 am)52% (Apr 26, 3:00 pm)29.77 "Hg (Apr 16, 2:00 pm)
Average82 °F82%29.86 "Hg
* Reported Apr 15 7:00 am — Apr 30 7:00 am, Fortaleza, Weather by CustomWeather, © 2017

Note: Actual official high and low records may vary slightly from our data, if they occured in-between our weather recording intervals... More about our weather records

Advertising

Fortaleza Weather History for the Previous 24 Hours

Scroll right to see more
 ConditionsComfort  
Time TempWeatherWind HumidityBarometerVisibility
7:00 am
Sun, Apr 30
77 °FPartly sunny.5 mph94%29.92 "HgN/A
6:00 am77 °FLight rain. Broken clouds.10 mph94%29.89 "Hg4 mi
5:00 am79 °FPassing clouds.12 mph89%29.89 "HgN/A
4:00 am81 °FPassing clouds.7 mph89%29.83 "HgN/A
3:00 am82 °FPassing clouds.9 mph84%29.86 "HgN/A
2:00 am82 °FPassing clouds.12 mph84%29.86 "HgN/A
1:00 am82 °FPassing clouds.8 mph84%29.89 "HgN/A
12:00 am81 °FPassing clouds.6 mph89%29.92 "HgN/A
11:00 pm
Sat, Apr 29
82 °FPassing clouds.7 mph84%29.92 "HgN/A
10:00 pm82 °FPassing clouds.8 mph84%29.92 "HgN/A
9:00 pm82 °FPassing clouds.7 mph84%29.92 "HgN/A
8:00 pm82 °FPassing clouds.6 mph84%29.89 "HgN/A
7:00 pm82 °FPassing clouds.6 mph84%29.86 "HgN/A
6:00 pm82 °FPassing clouds.9 mph84%29.86 "HgN/A
5:00 pm84 °FScattered clouds.12 mph74%29.83 "HgN/A
4:00 pm88 °FScattered clouds.13 mph66%29.83 "HgN/A
3:00 pm88 °FScattered clouds.13 mph70%29.80 "HgN/A
2:00 pm86 °FScattered clouds.10 mph75%29.83 "HgN/A
1:00 pm88 °FScattered clouds.12 mph70%29.86 "HgN/A
12:00 pm86 °FScattered clouds.12 mph70%29.86 "HgN/A
11:00 am86 °FScattered clouds.15 mph70%29.89 "HgN/A
10:00 am86 °FScattered clouds.13 mph70%29.92 "HgN/A
9:00 am84 °FPassing clouds.14 mph74%29.92 "HgN/A
8:00 am81 °FPassing clouds.15 mph84%29.92 "HgN/A
7:00 am79 °FPassing clouds.12 mph89%29.89 "HgN/A
Weather by CustomWeather, © 2017

See weather overviewHow to use our weather pages